Regional Weather Roundup
Issued by NWS

Home | Current Version | Previous Version | Graphics & Text | Print | Product List | Glossary On
Versions: 1 2 3 4 5 6 7 8 9 10 11 12 13 14 15 16 17 18 19 20 21 22 23 24 25 26 27 28 29 30 31 32 33 34 35 36 37 38 39 40 41 42 43 44 45 46 47 48 49 50
000
ASUS43 KLMK 022202
RWRKY
KENTUCKY REGIONAL WEATHER ROUNDUP
NATIONAL WEATHER SERVICE LOUISVILLE KY
600 PM EDT TUE JUN 02 2015

NOTE "FAIR" INDICATES FEW OR NO CLOUDS BELOW 12,000 FEET
WITH NO SIGNIFICANT WEATHER AND/OR OBSTRUCTIONS TO VISIBILITY.

KYZ001>023-026-027-061>063-070>075-022300-
WESTERN AND SOUTH CENTRAL KENTUCKY

CITY           SKY/WX    TMP DP  RH WIND       PRES   REMARKS
PADUCAH        CLOUDY    65  58  78 NE3       30.05F
HENDERSON      CLOUDY    64  55  72 N6        30.06S
OWENSBORO      CLOUDY    66  57  72 NE7       30.06S
HOPKINSVILLE   CLOUDY    65  60  81 NE8       30.04S
BOWLING GREEN  CLOUDY    66  58  75 N3        30.04F
GLASGOW        NOT AVBL
$$

KYZ024-025-028>034-038-045-046-053-022300-
NORTH CENTRAL KENTUCKY

CITY           SKY/WX    TMP DP  RH WIND       PRES   REMARKS
LOUISVILLE/SDF CLOUDY    66  54  65 NE10      30.06S
LOUISVILLE/LOU CLOUDY    65  54  67 NE6       30.07S
FORT KNOX      CLOUDY    64  56  74 NE5       30.04S
$$

KYZ035>037-039>044-047>052-055>060-089>105-022300-
NORTHEAST KENTUCKY

CITY           SKY/WX    TMP DP  RH WIND       PRES   REMARKS
LEXINGTON      CLOUDY    59  53  80 NE10      30.08R
COVINGTON      CLOUDY    61  51  70 NE8       30.09R
FRANKFORT      CLOUDY    61  52  72 E6        30.06F
$$

KYZ054-064>069-076>088-106>120-022300-
SOUTHEAST KENTUCKY

CITY           SKY/WX    TMP DP  RH WIND       PRES   REMARKS
JACKSON        CLOUDY    60  56  86 CALM      30.06S
LONDON         CLOUDY    63  54  72 NE7       30.05R
SOMERSET       NOT AVBL
MIDDLESBORO    NOT AVBL
MONTICELLO     CLOUDY    66  60  81 N7        30.06F
$$




USA.gov is the U.S. government's official web portal to all federal, state and local government web resources and services.